Weather History for Chickasha, OK

Change the Weather History Date:

Saturday, October 13, 2012

  Actual Average Record
Temperature  
Mean Temperature 70 °F -  
Max Temperature 77 °F 80 °F 92 °F (1954)
Min Temperature 62 °F 51 °F 32 °F (1987)
Cooling Degree Days 4    
Growing Degree Days 20 (Base 50)    
Moisture  
Dew Point 67 °F    
Average Humidity 88    
Maximum Humidity 100    
Minimum Humidity 55    
Precipitation  
Precipitation 0.67 in - - ()
Sea Level Pressure  
Sea Level Pressure 29.87 in    
Wind  
Wind Speed 14 mph (South)    
Max Wind Speed 22 mph    
Max Gust Speed 30 mph    
Visibility 10 miles    
Events Rain    
Averages and records for this station are not official NWS values.
T = Trace of Precipitation, MM = Missing Value Source: NWS Daily Summary

Daily Weather History Graph

Daily Weather History Graph

Search for Another Location

Airport:

Trip Planner

Search our weather history database for the weather conditions in past years. The results will help you decide how hot, cold, wet, or windy it might be!

Date:

Astronomy

Oct. 13, 2012 Rise Set
Actual Time 7:36 AM CDT 6:58 PM CDT
Civil Twilight 7:11 AM CDT 7:24 PM CDT
Nautical Twilight 6:41 AM CDT 7:53 PM CDT
Astronomical Twilight 6:12 AM CDT 8:22 PM CDT
Moon 5:31 AM CDT (10/13) 5:41 PM CDT (10/13)
Length of Visible Light 12h 13m
Length of Day
11h 22m
Waning Crescent, 5% of the Moon is Illuminated
Oct 13
Waning Crescent
Oct 15
New
Oct 21
First Quarter
Oct 29
Full
Nov 6
Last Quarter

Hourly Weather History & Observations

Time (CDT) Temp. Dew Point Humidity Pressure Visibility Wind Dir Wind Speed Gust Speed Precip Events Conditions
12:55 AM 73.4 °F 68.0 °F 83% 30.01 in 10.0 mi South 18.4 mph 23.0 mph N/A   Clear
1:15 AM 73.4 °F 68.0 °F 83% 30.01 in 10.0 mi South 16.1 mph 24.2 mph N/A   Clear
1:35 AM 73.4 °F 68.0 °F 83% 30.01 in 10.0 mi SSE 13.8 mph 19.6 mph N/A   Clear
1:55 AM 71.6 °F 68.0 °F 88% 30.01 in 10.0 mi South 13.8 mph 19.6 mph N/A   Clear
2:15 AM 71.6 °F 66.2 °F 83% 30.00 in 10.0 mi South 11.5 mph 19.6 mph N/A   Clear
2:35 AM 71.6 °F 68.0 °F 88% 29.99 in 10.0 mi SSE 12.7 mph 18.4 mph N/A   Clear
2:55 AM 71.6 °F 68.0 °F 88% 29.99 in 10.0 mi South 10.4 mph - N/A   Clear
3:35 AM 71.6 °F 68.0 °F 88% 29.99 in 10.0 mi South 9.2 mph - N/A   Mostly Cloudy
3:55 AM 69.8 °F 66.2 °F 88% 29.99 in 10.0 mi South 8.1 mph - N/A   Overcast
4:15 AM 69.8 °F 66.2 °F 88% 29.97 in 10.0 mi SSE 10.4 mph - N/A   Scattered Clouds
4:35 AM 69.8 °F 64.4 °F 83% 29.97 in 10.0 mi South 11.5 mph - N/A   Scattered Clouds
4:55 AM 68.0 °F 64.4 °F 88% 29.96 in 10.0 mi SSE 13.8 mph 18.4 mph N/A   Clear
5:15 AM 68.0 °F 64.4 °F 88% 29.95 in 10.0 mi SSE 13.8 mph 20.7 mph N/A   Clear
5:35 AM 68.0 °F 66.2 °F 94% 29.96 in 10.0 mi SSE 11.5 mph - N/A   Clear
5:55 AM 68.0 °F 66.2 °F 94% 29.96 in 10.0 mi SSE 10.4 mph - N/A   Clear
6:15 AM 68.0 °F 66.2 °F 94% 29.96 in 10.0 mi SSE 8.1 mph - N/A   Scattered Clouds
6:35 AM 68.0 °F 66.2 °F 94% 29.97 in 10.0 mi SSE 9.2 mph - N/A   Mostly Cloudy
6:55 AM 68.0 °F 66.2 °F 94% 29.97 in 10.0 mi SSE 10.4 mph - N/A   Overcast
7:15 AM 68.0 °F 66.2 °F 94% 29.97 in 10.0 mi SSE 8.1 mph - N/A   Overcast
7:35 AM 68.0 °F 66.2 °F 94% 29.96 in 10.0 mi South 16.1 mph 19.6 mph N/A Rain Rain
7:55 AM 68.0 °F 66.2 °F 94% 29.95 in 10.0 mi SSE 13.8 mph - N/A   Overcast
8:15 AM 69.8 °F 68.0 °F 94% 29.93 in 10.0 mi South 16.1 mph 24.2 mph N/A   Overcast
8:35 AM 71.6 °F 68.0 °F 88% 29.93 in 10.0 mi South 15.0 mph 20.7 mph N/A   Overcast
8:55 AM 69.8 °F 68.0 °F 94% 29.93 in 10.0 mi SSE 15.0 mph - N/A   Overcast
9:35 AM 71.6 °F 68.0 °F 88% 29.92 in 10.0 mi South 16.1 mph 21.9 mph N/A   Overcast
9:55 AM 71.6 °F 68.0 °F 88% 29.92 in 10.0 mi South 16.1 mph 19.6 mph N/A   Overcast
10:15 AM 73.4 °F 69.8 °F 88% 29.93 in 10.0 mi South 13.8 mph 25.3 mph N/A   Overcast
10:35 AM 73.4 °F 69.8 °F 88% 29.92 in 10.0 mi South 17.3 mph 24.2 mph N/A   Overcast
10:55 AM 73.4 °F 69.8 °F 88% 29.91 in 10.0 mi South 20.7 mph 29.9 mph N/A   Overcast
11:15 AM 73.4 °F 69.8 °F 88% 29.91 in 10.0 mi South 21.9 mph 28.8 mph N/A   Overcast
11:35 AM 73.4 °F 69.8 °F 88% 29.90 in 10.0 mi South 17.3 mph 26.5 mph N/A   Overcast
11:55 AM 73.4 °F 69.8 °F 88% 29.89 in 10.0 mi South 21.9 mph 28.8 mph N/A Rain Rain
12:15 PM 71.6 °F 69.8 °F 94% 29.89 in 5.0 mi South 13.8 mph 24.2 mph 0.08 in Rain Light Rain
12:35 PM 71.6 °F 69.8 °F 94% 29.89 in 7.0 mi SSW 12.7 mph 19.6 mph 0.09 in Rain Light Rain
1:15 PM 73.4 °F 71.6 °F 94% 29.86 in 10.0 mi South 18.4 mph 23.0 mph 0.01 in   Mostly Cloudy
1:35 PM 73.4 °F 71.6 °F 94% 29.84 in 10.0 mi South 20.7 mph 26.5 mph 0.01 in   Overcast
1:55 PM 73.4 °F 71.6 °F 94% 29.82 in 10.0 mi South 18.4 mph 25.3 mph 0.01 in   Overcast
2:15 PM 77.0 °F 71.6 °F 83% 29.79 in 10.0 mi South 21.9 mph 29.9 mph N/A   Mostly Cloudy
2:35 PM 77.0 °F 69.8 °F 78% 29.79 in 10.0 mi South 20.7 mph 28.8 mph N/A   Scattered Clouds
2:55 PM 75.2 °F 69.8 °F 83% 29.77 in 10.0 mi South 17.3 mph 29.9 mph N/A Rain Light Rain
3:15 PM 75.2 °F 69.8 °F 83% 29.76 in 10.0 mi South 17.3 mph 24.2 mph N/A   Mostly Cloudy
3:35 PM 77.0 °F 71.6 °F 83% 29.76 in 10.0 mi SSW 12.7 mph 24.2 mph N/A   Mostly Cloudy
3:55 PM 77.0 °F 71.6 °F 83% 29.77 in 10.0 mi SSW 16.1 mph 20.7 mph N/A Rain Light Rain
4:15 PM 68.0 °F 64.4 °F 88% 29.79 in 1.2 mi WNW 6.9 mph 17.3 mph 0.36 in Rain Heavy Rain
4:35 PM 68.0 °F 68.0 °F 100% 29.75 in 5.0 mi North 9.2 mph - 0.56 in Rain Light Rain
4:55 PM 68.0 °F 68.0 °F 100% 29.75 in 10.0 mi NW 12.7 mph 18.4 mph 0.56 in   Overcast
5:15 PM 68.0 °F 66.2 °F 94% 29.76 in 10.0 mi West 5.8 mph - N/A Rain Light Rain
5:35 PM 69.8 °F 68.0 °F 94% 29.75 in 10.0 mi South 12.7 mph 20.7 mph N/A   Overcast
5:55 PM 73.4 °F 69.8 °F 88% 29.73 in 10.0 mi South 12.7 mph 19.6 mph N/A   Scattered Clouds
6:15 PM 71.6 °F 68.0 °F 88% 29.73 in 5.0 mi SSW 15.0 mph 20.7 mph 0.01 in Rain Rain
6:35 PM 69.8 °F 68.0 °F 94% 29.71 in 10.0 mi South 15.0 mph 24.2 mph 0.01 in   Mostly Cloudy
7:15 PM 71.6 °F 68.0 °F 88% 29.73 in 10.0 mi SSW 10.4 mph - N/A   Clear
7:35 PM 71.6 °F 69.8 °F 94% 29.74 in 10.0 mi South 15.0 mph - N/A   Scattered Clouds
7:55 PM 69.8 °F 66.2 °F 88% 29.74 in 10.0 mi SSW 12.7 mph 17.3 mph N/A   Scattered Clouds
8:35 PM 68.0 °F 66.2 °F 94% 29.76 in 10.0 mi SW 9.2 mph - N/A   Clear
9:15 PM 68.0 °F 64.4 °F 88% 29.77 in 10.0 mi WSW 9.2 mph - N/A   Clear
9:35 PM 68.0 °F 62.6 °F 83% 29.78 in 10.0 mi WSW 9.2 mph - N/A   Clear
9:55 PM 64.4 °F 59.0 °F 83% 29.78 in 10.0 mi WSW 8.1 mph - N/A   Clear
10:15 PM 64.4 °F 55.4 °F 73% 29.77 in 10.0 mi WSW 9.2 mph - N/A   Scattered Clouds
10:55 PM 62.6 °F 51.8 °F 68% 29.79 in 10.0 mi SW 5.8 mph - N/A   Mostly Cloudy
11:35 PM 62.6 °F 46.4 °F 55% 29.81 in 10.0 mi West 11.5 mph 17.3 mph N/A   Clear